Location: Campillo
(40.8621°N, 4.2488°W)
Time: 18:51:55
(UTC+00:00)

Cosmos 2154 Rocket - Pass Details

Date: 26 September 2021
Orbit: 965 x 997 km, 82.9° (Epoch: 20 October)

Event Time Altitude Azimuth Distance (km) Brightness Sun altitude
Rises 19:31:29 0° 195° (SSW) 3,699 7.1 -16.7°
Reaches altitude 10° 19:34:01 10° 198° (SSW) 2,755 6.4 -17.1°
Maximum altitude 19:40:18 64° 280° (W) 1,100 4.5 -18.3°
Drops below altitude 10° 19:46:37 10° 1° (N) 2,769 6.5 -19.4°
Sets 19:49:11 0° 5° (N) 3,720 7.2 -19.9°
